"TOA5","MOW","CPU:UNC_MeetingWaters","DataHourly"
"TIMESTAMP","SondeTempC","SpCond","DOSat","DOmg","pH","Turb","BattVolt_Min"
"TS","","","","","","",""
"","Smp","Smp","Smp","Smp","Smp","Smp","Min"
"2004-12-01 00:00:00",12.3000001907,0.00400000018999,0.300000011921,0.0299999993294,7.73999977112,62.0,12.4200000763
"2004-12-01 01:00:00",12.3100004196,0.00400000018999,0.300000011921,0.0299999993294,7.73999977112,63.0,12.3999996185
"2004-12-01 02:00:00",12.3299999237,0.00400000018999,0.300000011921,0.0299999993294,7.73999977112,59.9000015259,12.3900003433
"2004-12-01 03:00:00",12.4200000763,0.00300000002608,0.300000011921,0.0299999993294,7.73999977112,51.2999992371,12.3900003433
"2004-12-01 04:00:00",12.5500001907,0.00300000002608,0.300000011921,0.0299999993294,7.73999977112,44.5,12.3699998856
"2004-12-01 05:00:00",12.8699998856,0.00300000002608,0.300000011921,0.0299999993294,7.75,36.7999992371,12.3699998856
"2004-12-01 06:00:00",13.0799999237,0.00300000002608,0.300000011921,0.0299999993294,7.75,28.3999996185,12.3599996567
"2004-12-01 07:00:00",13.279999733,0.162000000477,0.300000011921,0.0399999991059,7.78000020981,63.5999984741,12.3500003815
"2004-12-01 08:00:00",13.9399995804,0.305999994278,0.40000000596,0.0399999991059,7.71999979019,778.0,12.3500003815
"2004-12-01 09:00:00",14.7600002289,0.238999992609,0.40000000596,0.0399999991059,7.63999986649,298.5,12.3500003815
"2004-12-01 10:00:00",14.779999733,0.216000005603,0.40000000596,0.0399999991059,7.61000013351,167.899993896,12.6899995804
"2004-12-01 11:00:00",14.8900003433,0.179000005126,0.300000011921,0.0299999993294,7.57999992371,504.600006104,12.6300001144
"2004-12-01 12:00:00",15.0900001526,0.181999996305,0.300000011921,0.0299999993294,7.51000022888,193.199996948,13.3100004196
"2004-12-01 13:00:00",14.9899997711,0.0989999994636,0.300000011921,0.0299999993294,7.48000001907,169.800003052,12.7100000381
"2004-12-01 14:00:00",14.5699996948,0.097999997437,0.300000011921,0.0299999993294,7.46999979019,147.300003052,12.6099996567
"2004-12-01 15:00:00",14.3000001907,0.097000002861,0.300000011921,0.0299999993294,7.44999980927,168.300003052,12.529999733
"2004-12-01 16:00:00",14.0100002289,0.104999996722,0.300000011921,0.0299999993294,7.46000003815,202.699996948,12.5200004578
"2004-12-01 17:00:00",13.5600004196,0.112000003457,0.300000011921,0.0299999993294,7.48999977112,189.800003052,12.470000267
"2004-12-01 18:00:00",13.0699996948,0.11400000006,0.300000011921,0.0299999993294,7.51999998093,144.800003052,12.4600000381
"2004-12-01 19:00:00",12.5,0.0430000014603,0.300000011921,0.0299999993294,7.53999996185,98.1999969482,12.4300003052
"2004-12-01 20:00:00",12.1400003433,0.00700000021607,0.300000011921,0.0299999993294,7.53999996185,70.8000030518,12.3999996185
"2004-12-01 21:00:00",11.7299995422,0.00300000002608,0.300000011921,0.0299999993294,7.55999994278,52.0,12.3800001144
"2004-12-01 22:00:00",11.2399997711,0.00200000009499,0.300000011921,0.0299999993294,7.57999992371,42.0,12.3599996567
"2004-12-01 23:00:00",10.9399995804,0.137999996543,0.300000011921,0.0299999993294,7.63000011444,35.7000007629,12.3299999237
"2004-12-02 00:00:00",10.5,0.00300000002608,0.300000011921,0.0299999993294,7.65000009537,26.7999992371,12.3100004196
"2004-12-02 01:00:00",10.1499996185,0.00300000002608,0.300000011921,0.0299999993294,7.65999984741,20.7000007629,12.2899999619
"2004-12-02 02:00:00",9.72000026703,0.00200000009499,0.300000011921,0.0299999993294,7.67999982834,17.1000003815,12.2700004578
"2004-12-02 03:00:00",9.43999958038,0.00300000002608,0.300000011921,0.0299999993294,7.67999982834,15.1999998093,12.25
"2004-12-02 04:00:00",9.18000030518,0.00300000002608,0.300000011921,0.0299999993294,7.67999982834,13.5,12.220000267
"2004-12-02 05:00:00",8.73999977112,0.00200000009499,0.20000000298,0.0299999993294,7.69999980927,11.8000001907,12.1899995804
"2004-12-02 06:00:00",8.5,0.00200000009499,0.20000000298,0.0299999993294,7.71000003815,11.6000003815,12.1700000763
"2004-12-02 07:00:00",8.15999984741,0.00200000009499,0.20000000298,0.0299999993294,7.75,12.1000003815,12.1599998474
"2004-12-02 08:00:00",7.92999982834,0.00300000002608,0.20000000298,0.0299999993294,7.73000001907,9.80000019073,12.1599998474
"2004-12-02 09:00:00",7.80999994278,0.00200000009499,0.20000000298,0.0299999993294,7.76999998093,8.80000019073,12.25
"2004-12-02 10:00:00",8.18999958038,0.00200000009499,0.20000000298,0.0299999993294,7.76000022888,9.0,12.720000267
"2004-12-02 11:00:00",8.68000030518,0.00200000009499,0.20000000298,0.0299999993294,7.76000022888,8.80000019073,12.6199998856
"2004-12-02 12:00:00",9.90999984741,0.00300000002608,0.20000000298,0.0299999993294,7.75,8.0,13.5500001907
"2004-12-02 13:00:00",10.7100000381,0.00200000009499,0.300000011921,0.0299999993294,7.73999977112,7.30000019073,12.8500003815
"2004-12-02 14:00:00",10.6000003815,0.180000007153,0.300000011921,0.0299999993294,7.82000017166,7.5,12.6199998856
"2004-12-02 15:00:00",10.7700004578,0.00300000002608,0.300000011921,0.0299999993294,7.80000019073,7.40000009537,12.5500001907
"2004-12-02 16:00:00",10.7700004578,0.00300000002608,0.300000011921,0.0299999993294,7.78999996185,7.90000009537,12.5399999619
"2004-12-02 17:00:00",10.5900001526,0.00300000002608,0.300000011921,0.0299999993294,7.78000020981,9.80000019073,12.5
"2004-12-02 18:00:00",10.4099998474,0.00400000018999,0.300000011921,0.0299999993294,7.76999998093,10.6000003815,12.470000267
"2004-12-02 19:00:00",10.0900001526,0.00400000018999,0.300000011921,0.0299999993294,7.75,15.1999998093,12.4499998093
"2004-12-02 20:00:00",9.81999969482,0.00300000002608,0.300000011921,0.0299999993294,7.76000022888,26.3999996185,12.4099998474
"2004-12-02 21:00:00",9.65999984741,0.00200000009499,0.300000011921,0.0299999993294,7.76000022888,36.5999984741,12.3900003433
"2004-12-02 22:00:00",9.44999980927,0.00200000009499,0.300000011921,0.0299999993294,7.78000020981,29.3999996185,12.3699998856
"2004-12-02 23:00:00",9.22999954224,0.00200000009499,0.300000011921,0.0299999993294,7.76999998093,21.7999992371,12.3500003815
"2004-12-03 00:00:00",9.02999973297,0.00200000009499,0.20000000298,0.0299999993294,7.76999998093,18.8999996185,12.3299999237
"2004-12-03 01:00:00",9.02999973297,0.0149999996647,0.300000011921,0.0299999993294,7.78999996185,16.2999992371,12.3000001907
"2004-12-03 02:00:00",8.76000022888,0.00300000002608,0.300000011921,0.0299999993294,7.78999996185,14.0,12.2700004578
"2004-12-03 03:00:00",8.56000041962,0.00200000009499,0.300000011921,0.0299999993294,7.78999996185,11.8999996185,12.25
"2004-12-03 04:00:00",8.31999969482,0.00200000009499,0.20000000298,0.0299999993294,7.78000020981,10.8999996185,12.220000267
"2004-12-03 05:00:00",8.14999961853,0.00200000009499,0.20000000298,0.0299999993294,7.78999996185,9.60000038147,12.1999998093
"2004-12-03 06:00:00",7.92999982834,0.00200000009499,0.20000000298,0.0299999993294,7.80000019073,8.10000038147,12.1899995804
"2004-12-03 07:00:00",7.71999979019,0.00200000009499,0.20000000298,0.0299999993294,7.80999994278,7.80000019073,12.1800003052
"2004-12-03 08:00:00",7.51000022888,0.00200000009499,0.20000000298,0.0299999993294,7.82000017166,7.19999980927,12.1800003052
"2004-12-03 09:00:00",7.59000015259,0.00200000009499,0.20000000298,0.0299999993294,7.82999992371,7.09999990463,12.2600002289
"2004-12-03 10:00:00",8.06000041962,0.00200000009499,0.20000000298,0.0299999993294,7.84000015259,6.59999990463,12.6899995804
"2004-12-03 11:00:00",8.51000022888,0.0010000000475,0.20000000298,0.0299999993294,7.84999990463,6.19999980927,12.6800003052
"2004-12-03 12:00:00",9.68000030518,0.0010000000475,0.300000011921,0.0299999993294,7.84999990463,5.69999980927,13.5
"2004-12-03 13:00:00",10.1499996185,0.187999993563,0.300000011921,0.0299999993294,7.90000009537,6.69999980927,12.8000001907
"2004-12-03 14:00:00",10.3100004196,0.00600000005215,0.300000011921,0.0299999993294,7.88000011444,6.5,12.6599998474
"2004-12-03 15:00:00",10.4799995422,0.00499999988824,0.300000011921,0.0299999993294,7.90000009537,6.40000009537,12.5600004196
"2004-12-03 16:00:00",10.4300003052,0.00200000009499,0.300000011921,0.0299999993294,7.88000011444,6.5,12.5399999619
"2004-12-03 17:00:00",10.1999998093,0.00200000009499,0.300000011921,0.0299999993294,7.86000013351,6.40000009537,12.4899997711
"2004-12-03 18:00:00",9.94999980927,0.00200000009499,0.300000011921,0.0299999993294,7.84000015259,6.09999990463,12.4600000381
"2004-12-03 19:00:00",9.60000038147,0.00200000009499,0.300000011921,0.0299999993294,7.82000017166,6.59999990463,12.4300003052
"2004-12-03 20:00:00",9.35999965668,0.00300000002608,0.300000011921,0.0299999993294,7.80999994278,7.5,12.4099998474
"2004-12-03 21:00:00",9.06999969482,0.00200000009499,0.300000011921,0.0299999993294,7.78999996185,9.60000038147,12.3900003433
"2004-12-03 22:00:00",8.72000026703,0.00200000009499,0.300000011921,0.0299999993294,7.78000020981,11.5,12.3599996567
"2004-12-03 23:00:00",8.56999969482,0.00300000002608,0.300000011921,0.0299999993294,7.78000020981,14.1000003815,12.3400001526
"2004-12-04 00:00:00",8.27000045776,0.00300000002608,0.300000011921,0.0299999993294,7.78000020981,21.2999992371,12.3199996948
"2004-12-04 01:00:00",7.98000001907,0.00300000002608,0.300000011921,0.0299999993294,7.78999996185,20.7000007629,12.3000001907
"2004-12-04 02:00:00",7.71000003815,0.00300000002608,0.300000011921,0.0299999993294,7.80000019073,16.8999996185,12.2700004578
"2004-12-04 03:00:00",7.46000003815,0.00300000002608,0.20000000298,0.0299999993294,7.80000019073,14.3000001907,12.25
"2004-12-04 04:00:00",7.28000020981,0.00300000002608,0.20000000298,0.0299999993294,7.80000019073,10.6999998093,12.2299995422
"2004-12-04 05:00:00",7.05999994278,0.00300000002608,0.20000000298,0.0299999993294,7.78999996185,8.30000019073,12.1999998093
"2004-12-04 06:00:00",6.80000019073,0.00300000002608,0.20000000298,0.0299999993294,7.82000017166,7.90000009537,12.1700000763
"2004-12-04 07:00:00",6.61999988556,0.00300000002608,0.20000000298,0.0299999993294,7.80000019073,7.40000009537,12.1599998474
"2004-12-04 08:00:00",6.38000011444,0.00300000002608,0.20000000298,0.0299999993294,7.80999994278,7.0,12.1499996185
"2004-12-04 09:00:00",6.44999980927,0.00300000002608,0.20000000298,0.0299999993294,7.82000017166,6.09999990463,12.2600002289
"2004-12-04 10:00:00",6.96000003815,0.00300000002608,0.20000000298,0.0299999993294,7.82000017166,5.59999990463,12.6999998093
"2004-12-04 11:00:00",7.48999977112,0.00300000002608,0.20000000298,0.0299999993294,7.82999992371,5.40000009537,12.6400003433
"2004-12-04 12:00:00",8.88000011444,0.00200000009499,0.20000000298,0.0299999993294,7.82999992371,5.30000019073,13.5500001907
"2004-12-04 13:00:00",9.42000007629,0.0010000000475,0.300000011921,0.0299999993294,7.84000015259,5.5,13.0799999237
"2004-12-04 14:00:00",9.59000015259,0.0010000000475,0.20000000298,0.0299999993294,7.84000015259,6.30000019073,12.6300001144
"2004-12-04 15:00:00",9.73999977112,0.0010000000475,0.300000011921,0.0299999993294,7.84000015259,7.0,12.5600004196
"2004-12-04 16:00:00",9.80000019073,0.0010000000475,0.20000000298,0.0299999993294,7.84000015259,6.59999990463,12.5500001907
"2004-12-04 17:00:00",9.60000038147,0.0010000000475,0.300000011921,0.0299999993294,7.84000015259,6.40000009537,12.5
"2004-12-04 18:00:00",9.34000015259,0.0010000000475,0.20000000298,0.0299999993294,7.82999992371,6.5,12.470000267
"2004-12-04 19:00:00",9.10000038147,0.00200000009499,0.300000011921,0.0299999993294,7.84000015259,6.09999990463,12.4399995804
"2004-12-04 20:00:00",8.81999969482,0.00200000009499,0.20000000298,0.0299999993294,7.84999990463,6.09999990463,12.4099998474
"2004-12-04 21:00:00",8.63000011444,0.00200000009499,0.20000000298,0.0299999993294,7.84000015259,6.09999990463,12.3900003433
"2004-12-04 22:00:00",8.48999977112,0.00200000009499,0.20000000298,0.0299999993294,7.82999992371,6.19999980927,12.3699998856
"2004-12-04 23:00:00",8.22999954224,0.00200000009499,0.20000000298,0.0299999993294,7.82999992371,6.0,12.3500003815
"2004-12-05 00:00:00",8.01000022888,0.00200000009499,0.20000000298,0.0299999993294,7.82000017166,6.5,12.3299999237
"2004-12-05 01:00:00",7.82999992371,0.00200000009499,0.20000000298,0.0299999993294,7.84000015259,6.40000009537,12.3000001907
"2004-12-05 02:00:00",7.51999998093,0.00200000009499,0.20000000298,0.0299999993294,7.84000015259,6.90000009537,12.279999733
"2004-12-05 03:00:00",7.36000013351,0.00200000009499,0.20000000298,0.0299999993294,7.84000015259,6.30000019073,12.25
"2004-12-05 04:00:00",7.11000013351,0.00200000009499,0.20000000298,0.0299999993294,7.84000015259,6.09999990463,12.220000267
"2004-12-05 05:00:00",6.78999996185,0.00200000009499,0.20000000298,0.0299999993294,7.84999990463,6.0,12.1899995804
"2004-12-05 06:00:00",6.73000001907,0.00200000009499,0.20000000298,0.0299999993294,7.82999992371,6.30000019073,12.1700000763
"2004-12-05 07:00:00",6.57000017166,0.00200000009499,0.20000000298,0.0299999993294,7.82000017166,6.09999990463,12.1599998474
"2004-12-05 08:00:00",6.53999996185,0.00200000009499,0.20000000298,0.0299999993294,7.82000017166,5.80000019073,12.1899995804
"2004-12-05 09:00:00",6.80999994278,0.00200000009499,0.20000000298,0.0299999993294,7.82000017166,5.59999990463,12.5900001526
"2004-12-05 10:00:00",7.36999988556,0.00200000009499,0.20000000298,0.0299999993294,7.80000019073,5.5,12.7299995422
"2004-12-05 11:00:00",8.06999969482,0.00200000009499,0.300000011921,0.0299999993294,7.80000019073,5.19999980927,12.6099996567
"2004-12-05 12:00:00",10.0699996948,0.0010000000475,0.300000011921,0.0299999993294,7.80999994278,5.0,13.4799995422
"2004-12-05 13:00:00",10.5500001907,0.0010000000475,0.300000011921,0.0299999993294,7.80000019073,4.90000009537,13.3199996948
"2004-12-05 14:00:00",10.2100000381,0.0010000000475,0.300000011921,0.0299999993294,7.80999994278,5.19999980927,12.6199998856
"2004-12-05 15:00:00",10.4200000763,0.0010000000475,0.300000011921,0.0299999993294,7.80000019073,5.30000019073,12.5500001907
"2004-12-05 16:00:00",10.5100002289,0.0010000000475,0.300000011921,0.0299999993294,7.78000020981,5.30000019073,12.5500001907
"2004-12-05 17:00:00",10.3400001526,0.0010000000475,0.300000011921,0.0299999993294,7.82999992371,5.30000019073,12.5
"2004-12-05 18:00:00",10.1700000763,0.0010000000475,0.300000011921,0.0299999993294,7.82000017166,5.30000019073,12.470000267
"2004-12-05 19:00:00",9.89000034332,0.0010000000475,0.300000011921,0.0299999993294,7.82999992371,5.19999980927,12.4399995804
"2004-12-05 20:00:00",9.63000011444,0.00200000009499,0.300000011921,0.0299999993294,7.80000019073,5.0,12.4099998474
"2004-12-05 21:00:00",9.44999980927,0.00200000009499,0.300000011921,0.0299999993294,7.84000015259,5.5,12.3900003433
"2004-12-05 22:00:00",9.44999980927,0.00200000009499,0.300000011921,0.0299999993294,7.73999977112,5.40000009537,12.3800001144
"2004-12-05 23:00:00",9.36999988556,0.00200000009499,0.300000011921,0.0299999993294,7.75,5.09999990463,12.3699998856
"2004-12-06 00:00:00",9.39999961853,0.00200000009499,0.300000011921,0.0299999993294,7.76999998093,5.59999990463,12.3500003815
"2004-12-06 01:00:00",9.40999984741,0.00200000009499,0.300000011921,0.0299999993294,7.80999994278,5.69999980927,12.3299999237
"2004-12-06 02:00:00",9.40999984741,0.00200000009499,0.300000011921,0.0299999993294,7.82000017166,6.0,12.3000001907
"2004-12-06 03:00:00",9.51000022888,0.00200000009499,0.300000011921,0.0299999993294,7.82000017166,5.19999980927,12.2899999619
"2004-12-06 04:00:00",9.52999973297,0.00200000009499,0.300000011921,0.0299999993294,7.82999992371,5.90000009537,12.2700004578
"2004-12-06 05:00:00",9.60000038147,0.00200000009499,0.300000011921,0.0299999993294,7.80999994278,6.80000019073,12.25
"2004-12-06 06:00:00",9.64999961853,0.00200000009499,0.300000011921,0.0299999993294,7.82000017166,6.40000009537,12.2399997711
"2004-12-06 07:00:00",9.68999958038,0.00300000002608,0.300000011921,0.0299999993294,7.82000017166,6.5,12.2299995422
"2004-12-06 08:00:00",9.78999996185,0.00300000002608,0.300000011921,0.0299999993294,7.82000017166,6.19999980927,12.2299995422
"2004-12-06 09:00:00",9.96000003815,0.00200000009499,0.300000011921,0.0299999993294,7.82999992371,5.90000009537,12.2399997711
"2004-12-06 10:00:00",10.1899995804,0.00300000002608,0.300000011921,0.0299999993294,7.84000015259,5.5,12.2600002289
"2004-12-06 11:00:00",10.4200000763,0.00300000002608,0.300000011921,0.0299999993294,7.80000019073,6.30000019073,12.4200000763
"2004-12-06 12:00:00",10.7600002289,0.00300000002608,0.300000011921,0.0299999993294,7.76000022888,6.0,12.4399995804
"2004-12-06 13:00:00",11.0200004578,0.00200000009499,0.300000011921,0.0299999993294,7.75,5.90000009537,12.5900001526
"2004-12-06 14:00:00",11.279999733,0.00300000002608,0.300000011921,0.0299999993294,7.76000022888,6.19999980927,12.5600004196
"2004-12-06 15:00:00",11.5799999237,0.00600000005215,0.300000011921,0.0399999991059,7.80999994278,5.80000019073,12.4799995422
"2004-12-06 16:00:00",11.7100000381,0.00499999988824,0.300000011921,0.0299999993294,7.82000017166,5.80000019073,12.4200000763
"2004-12-06 17:00:00",11.8100004196,0.00300000002608,0.300000011921,0.0299999993294,7.80000019073,5.5,12.3599996567
"2004-12-06 18:00:00",11.8599996567,0.00200000009499,0.300000011921,0.0299999993294,7.78000020981,5.59999990463,12.3000001907
"2004-12-06 19:00:00",11.8900003433,0.00200000009499,0.300000011921,0.0299999993294,7.78000020981,6.5,12.279999733
"2004-12-06 20:00:00",11.8900003433,0.00400000018999,0.300000011921,0.0299999993294,7.76999998093,19.8999996185,12.2600002289
"2004-12-06 21:00:00",12.220000267,0.296000003815,0.300000011921,0.0399999991059,7.78000020981,48.5,12.2600002289
"2004-12-06 22:00:00",12.779999733,0.272000014782,0.300000011921,0.0399999991059,8.81000041962,148.600006104,12.25
"2004-12-06 23:00:00",13.6999998093,0.192000001669,0.300000011921,0.0399999991059,9.93999958038,471.899993896,12.25
"2004-12-07 00:00:00",13.7700004578,0.179000005126,0.300000011921,0.0299999993294,9.06000041962,220.0,12.2299995422
"2004-12-07 01:00:00",13.5900001526,0.144999995828,0.300000011921,0.0299999993294,8.56000041962,212.600006104,12.2299995422
"2004-12-07 02:00:00",13.4399995804,0.097999997437,0.300000011921,0.0299999993294,8.22000026703,183.899993896,12.220000267
"2004-12-07 03:00:00",13.2399997711,0.097000002861,0.300000011921,0.0299999993294,8.02000045776,150.899993896,12.2100000381
"2004-12-07 04:00:00",13.0500001907,0.00400000018999,0.300000011921,0.0299999993294,7.88000011444,118.5,12.220000267
"2004-12-07 05:00:00",13.0,0.00300000002608,0.300000011921,0.0299999993294,7.78000020981,95.3000030518,12.2100000381
"2004-12-07 06:00:00",12.9399995804,0.00200000009499,0.300000011921,0.0299999993294,7.73000001907,78.6999969482,12.1999998093
"2004-12-07 07:00:00",12.8999996185,0.00200000009499,0.300000011921,0.0299999993294,7.69000005722,73.4000015259,12.1999998093
"2004-12-07 08:00:00",12.9300003052,0.00200000009499,0.300000011921,0.0299999993294,7.67000007629,58.5,12.1999998093
"2004-12-07 09:00:00",13.0600004196,0.00300000002608,0.300000011921,0.0299999993294,7.65999984741,46.4000015259,12.2100000381
"2004-12-07 10:00:00",13.5399999619,0.00200000009499,0.300000011921,0.0299999993294,7.65000009537,34.2000007629,12.3500003815
"2004-12-07 11:00:00",14.25,0.00200000009499,0.300000011921,0.0299999993294,7.57000017166,26.2999992371,12.7299995422
"2004-12-07 12:00:00",14.779999733,0.00300000002608,0.300000011921,0.0299999993294,7.69000005722,20.2000007629,12.9399995804
"2004-12-07 13:00:00",15.5500001907,0.00300000002608,0.300000011921,0.0299999993294,7.76999998093,15.1000003815,12.8599996567
"2004-12-07 14:00:00",15.9499998093,0.00200000009499,0.300000011921,0.0299999993294,7.82000017166,12.0,12.7299995422
"2004-12-07 15:00:00",15.8999996185,0.00300000002608,0.300000011921,0.0299999993294,7.82000017166,10.3999996185,12.6099996567
"2004-12-07 16:00:00",16.0,0.00300000002608,0.300000011921,0.0299999993294,7.82000017166,8.60000038147,12.5100002289
"2004-12-07 17:00:00",16.0100002289,0.00300000002608,0.300000011921,0.0299999993294,7.80999994278,7.30000019073,12.4799995422
"2004-12-07 18:00:00",15.9499998093,0.00300000002608,0.300000011921,0.0299999993294,7.80999994278,8.19999980927,12.4499998093
"2004-12-07 19:00:00",15.970000267,0.00300000002608,0.300000011921,0.0299999993294,7.80000019073,9.60000038147,12.4399995804
"2004-12-07 20:00:00",15.9499998093,0.00300000002608,0.300000011921,0.0299999993294,7.78999996185,13.0,12.4300003052
"2004-12-07 21:00:00",16.0599994659,0.00200000009499,0.300000011921,0.0299999993294,7.78000020981,13.8000001907,12.4200000763
"2004-12-07 22:00:00",16.1000003815,0.00200000009499,0.300000011921,0.0299999993294,7.76999998093,18.2999992371,12.4099998474
"2004-12-07 23:00:00",16.0699996948,0.00200000009499,0.300000011921,0.0299999993294,7.76999998093,18.1000003815,12.3900003433
"2004-12-08 00:00:00",16.0,0.00200000009499,0.300000011921,0.0299999993294,7.76999998093,16.1000003815,12.3900003433
"2004-12-08 01:00:00",15.9200000763,0.00200000009499,0.300000011921,0.0299999993294,7.76000022888,13.6999998093,12.3699998856
"2004-12-08 02:00:00",15.75,0.00200000009499,0.300000011921,0.0299999993294,7.75,11.3999996185,12.3500003815
"2004-12-08 03:00:00",15.529999733,0.00200000009499,0.300000011921,0.0299999993294,7.75,9.89999961853,12.3400001526
"2004-12-08 04:00:00",15.2399997711,0.00200000009499,0.300000011921,0.0299999993294,7.75,9.5,12.3199996948
"2004-12-08 05:00:00",14.8699998856,0.00200000009499,0.300000011921,0.0299999993294,7.75,8.5,12.3000001907
"2004-12-08 06:00:00",14.4899997711,0.00200000009499,0.300000011921,0.0299999993294,7.76000022888,7.40000009537,12.279999733
"2004-12-08 07:00:00",14.1000003815,0.00200000009499,0.300000011921,0.0299999993294,7.76999998093,7.09999990463,12.2600002289
"2004-12-08 08:00:00",13.529999733,0.00200000009499,0.300000011921,0.0299999993294,7.76000022888,6.19999980927,12.2399997711
"2004-12-08 09:00:00",13.3500003815,0.00200000009499,0.300000011921,0.0299999993294,7.76000022888,6.09999990463,12.25
"2004-12-08 10:00:00",13.6300001144,0.00200000009499,0.300000011921,0.0299999993294,7.78000020981,6.30000019073,12.6499996185
"2004-12-08 11:00:00",13.8800001144,0.00200000009499,0.300000011921,0.0299999993294,7.76999998093,6.09999990463,12.5
"2004-12-08 12:00:00",14.6999998093,0.0010000000475,0.300000011921,0.0299999993294,7.75,7.5,13.2600002289
"2004-12-08 13:00:00",15.6000003815,0.0010000000475,0.300000011921,0.0299999993294,7.75,6.30000019073,12.9200000763
"2004-12-08 14:00:00",15.029999733,0.0010000000475,0.300000011921,0.0299999993294,7.71999979019,13.6000003815,12.6400003433
"2004-12-08 15:00:00",15.1000003815,0.0010000000475,0.300000011921,0.0299999993294,7.69000005722,5.59999990463,12.6000003815
"2004-12-08 16:00:00",15.0399999619,0.0010000000475,0.300000011921,0.0299999993294,7.71000003815,5.5,12.5399999619
"2004-12-08 17:00:00",14.779999733,0.0010000000475,0.300000011921,0.0299999993294,7.63000011444,4.80000019073,12.470000267
"2004-12-08 18:00:00",14.3599996567,0.0010000000475,0.300000011921,0.0299999993294,7.69999980927,5.0,12.4399995804
"2004-12-08 19:00:00",13.9200000763,0.0010000000475,0.300000011921,0.0299999993294,7.69999980927,5.19999980927,12.4099998474
"2004-12-08 20:00:00",13.3599996567,0.00200000009499,0.300000011921,0.0299999993294,7.69999980927,5.19999980927,12.3999996185
"2004-12-08 21:00:00",12.970000267,0.00200000009499,0.300000011921,0.0299999993294,7.69999980927,5.19999980927,12.3699998856
"2004-12-08 22:00:00",12.5399999619,0.00200000009499,0.300000011921,0.0299999993294,7.71000003815,5.59999990463,12.3599996567
"2004-12-08 23:00:00",12.4600000381,0.00200000009499,0.300000011921,0.0299999993294,7.69000005722,6.59999990463,12.3400001526
